sat.trackr.live / text

‹ back to catalog

LEMUR-2-KREMPEL-BRO1

NORAD 63357 · 2025-061G

PAYLOAD ACTIVE UNKNOWN

§ Identity

Operator
Country
US
Launch date
2025-03-26
Launch site
RLLB
Launch vehicle
Mass (kg)
RCS (m²)

Purposes: earth_obs

External: N2YO · Heavens-Above · Gunter

§ Orbital elements

Epoch: 2026-05-25T04:40:53.215968Z

Period
95.09 min
Inclination
97.5597°
Eccentricity
0.0017904
Mean motion
15.14391742 rev/d
Perigee alt
510.5 km
Apogee alt
535.2 km
Semi-major
6,901.0 km
B*
2.0560e-4
RAAN
121.2341°
Arg perigee
333.6427°
Mean anomaly
26.3892°
Rev number
6,415

§ Raw data

LEMUR-2-KREMPEL-BRO11 63357U 25061G   26145.19506037  .00003720  00000+0  20560-3 0  99942 63357  97.5597 121.2341 0017904 333.6427  26.3892 15.14391742 64154

JSON: /api/v1/satellites/63357 · /tle

For live sub-satellite position, see the globe view (requires WebGL).

§ Visibility from observer

Set your observer location to see the next 7 days of passes ≥ 10°. The values pass through the URL so the page stays shareable.

No JS? Fill the form by hand. The geolocation button needs JavaScript.